TimeCST,TemperatureF,Dew PointF,Humidity,Sea Level PressureIn,VisibilityMPH,Wind Direction,Wind SpeedMPH,Gust SpeedMPH,PrecipitationIn,Events,Conditions,WindDirDegrees,DateUTC
12:52 AM,12.0,6.1,77,30.17,10.0,North,17.3,-,N/A,,Clear,360,2013-01-13 06:52:00
1:52 AM,10.9,5.0,77,30.21,10.0,North,13.8,-,N/A,,Clear,360,2013-01-13 07:52:00
2:52 AM,10.0,5.0,80,30.25,10.0,NNW,8.1,-,N/A,,Clear,340,2013-01-13 08:52:00
3:52 AM,9.0,3.9,80,30.25,10.0,North,9.2,-,N/A,,Clear,360,2013-01-13 09:52:00
4:52 AM,7.0,3.0,84,30.24,10.0,NNW,8.1,-,N/A,,Clear,330,2013-01-13 10:52:00
5:52 AM,7.0,1.9,80,30.26,10.0,NNW,8.1,-,N/A,,Partly Cloudy,330,2013-01-13 11:52:00
6:52 AM,8.1,3.0,80,30.29,10.0,NNW,8.1,-,N/A,,Mostly Cloudy,330,2013-01-13 12:52:00
7:52 AM,9.0,3.0,77,30.32,10.0,NNW,6.9,-,N/A,,Mostly Cloudy,340,2013-01-13 13:52:00
8:52 AM,12.0,5.0,73,30.34,10.0,NNW,9.2,-,N/A,,Overcast,340,2013-01-13 14:52:00
9:52 AM,15.1,5.0,64,30.35,10.0,NNW,10.4,-,N/A,,Clear,340,2013-01-13 15:52:00
10:52 AM,19.4,6.8,58,30.23,10.0,North,12.7,-,N/A,,Clear,10,2013-01-13 16:52:00
11:52 AM,21.0,5.0,50,30.32,10.0,North,11.5,16.1,N/A,,Clear,350,2013-01-13 17:52:00
12:52 PM,24.1,6.1,46,30.29,10.0,North,12.7,16.1,N/A,,Clear,360,2013-01-13 18:52:00
1:52 PM,25.0,5.0,43,30.28,10.0,WNW,8.1,-,N/A,,Clear,300,2013-01-13 19:52:00
2:52 PM,27.0,5.0,39,30.28,10.0,North,8.1,-,N/A,,Clear,360,2013-01-13 20:52:00
3:52 PM,26.1,3.9,39,30.29,10.0,NNW,8.1,-,N/A,,Clear,340,2013-01-13 21:52:00
4:52 PM,26.1,3.9,39,30.31,10.0,North,5.8,-,N/A,,Clear,350,2013-01-13 22:52:00
5:52 PM,19.9,8.1,60,30.33,10.0,Calm,Calm,-,N/A,,Clear,0,2013-01-13 23:52:00
6:52 PM,18.0,8.1,65,30.33,10.0,NE,3.5,-,N/A,,Clear,50,2013-01-14 00:52:00
7:52 PM,19.0,7.0,59,30.35,10.0,Calm,Calm,-,N/A,,Clear,0,2013-01-14 01:52:00
8:52 PM,18.0,7.0,62,30.36,10.0,Calm,Calm,-,N/A,,Clear,0,2013-01-14 02:52:00
9:52 PM,16.0,7.0,68,30.35,10.0,Calm,Calm,-,N/A,,Clear,0,2013-01-14 03:52:00
10:52 PM,18.0,7.0,62,30.36,10.0,Calm,Calm,-,N/A,,Clear,0,2013-01-14 04:52:00
11:52 PM,17.1,8.1,68,30.37,10.0,Calm,Calm,-,N/A,,Clear,0,2013-01-14 05:52:00